Simultaneous Nadir Overpasses (SNOs) Predictions

Prediction of SNOs between GOES-16 and NOAA-19 Satellite Orbit:

Table of predicted SNOs for the next 14.0 days since TLE Epoch: 3/19/2022
Index Date Time (GOES-16) GOES-16 Lat,Lon NOAA-19 Lat,Lon Distance(km) Time Diff (sec)
1 03/20/2022 00:43:11 -0.03, -75.21 -0.40, -76.70 170.50 80
2 03/21/2022 00:28:44 -0.03, -75.21 0.32, -73.83 158.67 80
3 03/22/2022 00:16:55 -0.02, -75.22 0.98, -70.95 487.78 80
4 03/23/2022 12:51:55 0.03, -75.25 0.81, -78.69 392.74 80
5 03/24/2022 12:40:07 0.03, -75.25 0.15, -75.81 63.61 80
6 03/25/2022 12:25:38 0.02, -75.26 -0.50, -72.93 265.60 80
7 03/28/2022 00:49:08 -0.03, -75.25 -0.65, -77.86 298.12 80
8 03/29/2022 00:34:40 -0.03, -75.26 0.02, -74.98 31.98 80
9 03/30/2022 00:22:51 -0.03, -75.27 0.69, -72.10 362.30 80
10 04/01/2022 12:46:04 0.03, -75.34 0.43, -76.96 185.81 80
